BREEZE-M R/B, 45987

Orbit data source: Space-Track

BREEZE-M R/B, 45987 is space debris in HEO originally from a launch on Thu, 30 Jul 2020 UTC launched from the Tyuratam Missile And Space Complex (TTMTR). Debris objects in space refer to the collection of defunct objects orbiting the Earth. Examples of debris include non-operational satellites, rocket bodies, and fragments generated from explosions, collisions, or faulty payload assembly.

Loading next visibility...
Identifier
45987, 2020-053C
Orbit
HEO
Country
Flag of CISCIS
Related business
Manufacturer
Khrunichev
Mission
Spacecraft
Bus & Motor
BRIZ, Unknown motor
Mass
~1,600 kg wet, 1,600 kg dry
Launch date (UTC)
2020-07-30 (5 years ago)
Launch vehicle
Unknown
Launch site
Tyuratam Missile And Space Complex (TTMTR)
Object type
Payload
Rocket body
Debris
Shape & HBR
Cyl, 2.0 m
Radar Cross Section
15.135 m², Medium (>0.1 m² and < 1m²)

Expand to show TLE details & history
Last TLE update: 1 day ago

TLE from 1 day ago
0 BREEZE-M R/B
1 45987U 20053C   25308.30440533 -.00000027  00000-0  00000-0 0  9993
2 45987   6.9599  82.5598 4359491  68.2618 331.9430  1.03580505 19916
Epoch: 2025-11-04T07:18Z
TLE epoch observation values (Epoch: 2025-11-04T07:18:20.620Z)
Latitude
-0.00001°
Longitude
-70.97645°
Altitude
22,519.131 km
Speed
4.234 km/s
True Right ascension
05h 29m 36s
True Declination
0° 00' 00"
Sunlit
Object was in daylight at epoch
Visualization orbit readout
Latitude
Unknown
Longitude
Unknown
Altitude
Unknown
Speed
Unknown
Apparent Right ascension
Unknown
Apparent Declination
Unknown
Sunlit
N/A
Visualization observer readout
Local Sidereal Time
04:47:24
Azimuth
Unknown
Elevation
Unknown
Doppler factor
Unknown
Orbital elements
Apogee altitude
52,874.026 km
Perigee altitude
16,896.529 km
Semi-major axis
41,263.415 km
Eccentricity
0.43595
Inclination
6.9599°
RAAN
82.5598°
Arg. of periapsis
68.2618°
True anomaly
291.737°
Mean anomaly
331.943°
Eccentric anomaly
313.96457°
Mean motion
0.25894 °/min
Orbital period
1,390.3 mins
BSTAR
0
Loading maneuver chart data...
Computing Atmospheric mass density...
Loading historical data...
Loading historical data...
Loading historical data...
Loading historical data...
Loading historical data...
Loading historical data...
Loading historical data...
Other satellites on launch #53 in the year 2020 (2020-07-30 UTC)

Documentation

Showing up to 5 results
|